Location: Asheville, NC
(35.6000°N, 82.5500°W)
Time: 18:20:30
(UTC-04:00)

AO-73 - Pass Details

Date: 13 March 2018
Orbit: 582 x 665 km, 97.6° (Epoch: 19 June)

Event Time Altitude Azimuth Distance (km) Brightness Sun altitude
Rises 20:36:34 0° 160° (SSE) 2,884 ? -13.1°
Reaches altitude 10° 20:38:47 10° 157° (SSE) 1,969 ? -13.5°
Maximum altitude 20:43:01 64° 76° (ENE) 669 ? -14.4°
Drops below altitude 10° 20:47:10 10° 355° (N) 1,936 ? -15.2°
Sets 20:49:20 0° 352° (N) 2,832 ? -15.7°
